Find Starlink 2396

NORAD ID: 47815 Int'l Des: 2021-018 Owner: SPXS Country: US Constellation: starlink operational
LEOCIRCULAR

現在のビュー

3D地球を読み込み中...

About Starlink 2396

Starlink 2396 (NORAD 47815) is a starlink constellation satellite (v1.0) launched Mar 11, 2021 by SPXS of US. It operates in LEO, CIRCULAR orbit with a mass of 260.00 kg.

次回通過

Passes for default location (London). Set your location on the main map for personalized predictions.

高度履歴

Loading altitude history...

軌道要素

1 47815U 21018AE 26265.67446658 .00001281 00000-0 53040-4 0 9992
2 47815 53.1594 45.9520 0001124 88.6065 271.5065 15.31701940306905
Epoch: Sep 22, 2026 • Age: 16 hours

現在のステータス

高度 474.6 km
遠地点 / 近地点 N/A
速度 7.63 km/s
衛星直下点 44.62°N, 47.83°E
打ち上げ日 Mar 11, 2021
運用期間 5.5 years
タイプ internet

技術仕様

分類 Payload
質量 260.00 kg
乾燥質量 248.00 kg
長さ 0.20 m
スパン 9.00 m
形状 ? Box + pan
製造者 SPXS
バスタイプ Starlink
フェーズステータス In Orbit
所有者/国 SPXS/US

Most Searched